TKJ5DA UGTB-LTFJ

Flight info

Callsign TKJ5DA
Flight time N/A
Altitude 36000
Route ZAGOT DCT NOLGA UN61 TBN UW71 CRM DCT DEREL UT79 NAMAN
Aircraft B738/M-SDE2E3FGHIRWXY/LB1

Departure

Time 2026-04-23 21:39
Airport Tbilisi International Airport (UGTB)

Arrival

Time N/A
Airport Istanbul Sabiha Gökçen International Airport (LTFJ)
Time Latitude Longitude Altitude Speed Heading
2026-04-23 21:25 41.66893 44.96331 1572 ft 0 kts 43°
2026-04-23 21:31 41.66888 44.96325 1571 ft 2 kts 43°
2026-04-23 21:31 41.66877 44.96311 1570 ft 2 kts 44°
2026-04-23 21:32 41.66866 44.96298 1569 ft 2 kts 44°
2026-04-23 21:32 41.66855 44.96284 1568 ft 2 kts 44°
2026-04-23 21:32 41.66843 44.96270 1566 ft 1 kts 56°
2026-04-23 21:32 41.66841 44.96251 1565 ft 2 kts 103°
2026-04-23 21:33 41.66845 44.96239 1565 ft 0 kts 131°
2026-04-23 21:33 41.66850 44.96232 1565 ft 0 kts 134°
2026-04-23 21:33 41.66850 44.96231 1565 ft 0 kts 134°
2026-04-23 21:35 41.66819 44.96276 1565 ft 7 kts 132°
2026-04-23 21:35 41.66795 44.96310 1565 ft 7 kts 134°
2026-04-23 21:35 41.66759 44.96360 1564 ft 7 kts 133°
2026-04-23 21:35 41.66708 44.96422 1563 ft 15 kts 156°
2026-04-23 21:36 41.66386 44.96330 1542 ft 27 kts 194°
2026-04-23 21:36 41.66214 44.96303 1531 ft 16 kts 169°
2026-04-23 21:36 41.66187 44.96312 1530 ft 1 kts 163°
2026-04-23 21:37 41.66151 44.96336 1528 ft 13 kts 146°
2026-04-23 21:37 41.66046 44.96463 1522 ft 23 kts 136°
2026-04-23 21:37 41.65935 44.96594 1511 ft 17 kts 153°
2026-04-23 21:37 41.65847 44.96518 1506 ft 17 kts 265°
2026-04-23 21:38 41.65896 44.96400 1511 ft 12 kts 316°
2026-04-23 21:38 41.66008 44.96258 1519 ft 49 kts 316°
2026-04-23 21:38 41.66414 44.95745 1531 ft 109 kts 317°
2026-04-23 21:38 41.67083 44.94893 1682 ft 146 kts 315°
2026-04-23 21:39 41.67814 44.93984 2321 ft 149 kts 316°
2026-04-23 21:39 41.68613 44.93002 2752 ft 167 kts 316°
2026-04-23 21:39 41.69508 44.91881 3182 ft 185 kts 316°
2026-04-23 21:39 41.70496 44.90643 3563 ft 201 kts 316°
2026-04-23 21:40 41.71549 44.89333 3979 ft 214 kts 316°
2026-04-23 21:40 41.72674 44.87929 4393 ft 228 kts 315°
2026-04-23 21:40 41.73857 44.86449 4828 ft 240 kts 315°
2026-04-23 21:40 41.75097 44.84903 5481 ft 245 kts 314°
2026-04-23 21:41 41.76323 44.83375 6225 ft 248 kts 314°
2026-04-23 21:41 41.77635 44.81734 6686 ft 263 kts 314°
2026-04-23 21:41 41.78979 44.80048 7349 ft 269 kts 311°
2026-04-23 21:41 41.80027 44.78016 7992 ft 266 kts 285°
2026-04-23 21:42 41.80204 44.74808 8961 ft 263 kts 263°
2026-04-23 21:42 41.80114 44.73156 9495 ft 263 kts 262°
2026-04-23 21:42 41.80016 44.70729 10272 ft 264 kts 263°
2026-04-23 21:42 41.79949 44.68234 10767 ft 276 kts 264°
2026-04-23 21:43 41.79887 44.65605 11268 ft 288 kts 264°
2026-04-23 21:43 41.79825 44.62889 11702 ft 301 kts 264°
2026-04-23 21:43 41.79758 44.60049 12154 ft 314 kts 264°
2026-04-23 21:43 41.79689 44.57091 12877 ft 317 kts 264°
2026-04-23 21:44 41.79620 44.54155 13717 ft 316 kts 264°
2026-04-23 21:44 41.79552 44.51268 14571 ft 316 kts 264°
2026-04-23 21:44 41.79480 44.48292 15213 ft 322 kts 264°
2026-04-23 21:44 41.79404 44.45290 15891 ft 326 kts 265°
2026-04-23 21:45 41.79328 44.42256 16590 ft 329 kts 265°
2026-04-23 21:45 41.79256 44.39177 17249 ft 332 kts 265°
2026-04-23 21:45 41.79180 44.36048 17928 ft 335 kts 265°
2026-04-23 21:45 41.79102 44.32948 18585 ft 337 kts 264°
2026-04-23 21:46 41.79019 44.29799 19263 ft 340 kts 264°
2026-04-23 21:46 41.78933 44.26635 19845 ft 344 kts 264°
2026-04-23 21:46 41.78845 44.23448 20542 ft 345 kts 264°
2026-04-23 21:46 41.78757 44.20254 21155 ft 347 kts 264°
2026-04-23 21:47 41.78628 44.17008 21740 ft 349 kts 262°
2026-04-23 21:47 41.78250 44.13809 22259 ft 351 kts 255°
2026-04-23 21:47 41.77596 44.10650 22921 ft 350 kts 251°
2026-04-23 21:47 41.76765 44.07585 23450 ft 353 kts 248°
2026-04-23 21:48 41.75856 44.04553 23913 ft 357 kts 247°
2026-04-23 21:48 41.74904 44.01465 24471 ft 359 kts 247°
2026-04-23 21:48 41.73953 43.98383 24987 ft 362 kts 247°
2026-04-23 21:48 41.72986 43.95246 25448 ft 366 kts 247°
2026-04-23 21:49 41.72012 43.92076 26009 ft 367 kts 248°
2026-04-23 21:49 41.71059 43.88957 26558 ft 368 kts 248°
2026-04-23 21:49 41.70078 43.85752 26900 ft 373 kts 248°
2026-04-23 21:49 41.69080 43.82501 27316 ft 377 kts 248°
2026-04-23 21:50 41.68090 43.79274 27688 ft 381 kts 248°
2026-04-23 21:50 41.67063 43.75923 28209 ft 382 kts 248°
2026-04-23 21:50 41.66057 43.72635 28736 ft 382 kts 248°
2026-04-23 21:50 41.65048 43.69352 29283 ft 381 kts 248°
2026-04-23 21:51 41.64027 43.66049 29533 ft 387 kts 248°
2026-04-23 21:51 41.62995 43.62701 29843 ft 391 kts 247°
2026-04-23 21:51 41.61971 43.59377 30295 ft 392 kts 248°
2026-04-23 21:51 41.60926 43.55994 30784 ft 392 kts 248°
2026-04-23 21:52 41.59890 43.52645 31142 ft 393 kts 247°
2026-04-23 21:52 41.58849 43.49270 31470 ft 396 kts 248°
2026-04-23 21:52 41.57782 43.45821 31776 ft 399 kts 248°
2026-04-23 21:52 41.56738 43.42429 32176 ft 400 kts 248°
2026-04-23 21:53 41.55674 43.39004 32681 ft 397 kts 248°
2026-04-23 21:53 41.54622 43.35617 33231 ft 394 kts 247°
2026-04-23 21:53 41.53577 43.32262 33784 ft 390 kts 247°
2026-04-23 21:53 41.52538 43.28949 34196 ft 389 kts 247°
2026-04-23 21:54 41.51491 43.25602 34543 ft 390 kts 246°
2026-04-23 21:54 41.50458 43.22290 34944 ft 389 kts 246°
2026-04-23 21:54 41.49421 43.18967 35303 ft 386 kts 247°
2026-04-23 21:54 41.48401 43.15701 35735 ft 380 kts 246°
2026-04-23 21:55 41.47046 43.11369 35879 ft 382 kts 246°
2026-04-23 21:55 41.45349 43.05959 35902 ft 381 kts 246°
2026-04-23 21:56 41.43380 42.99443 35908 ft 379 kts 250°
2026-04-23 21:56 41.42094 42.92641 35874 ft 379 kts 257°
2026-04-23 21:57 41.41242 42.85642 35889 ft 383 kts 258°
2026-04-23 21:57 41.40443 42.78721 35893 ft 381 kts 258°
2026-04-23 21:58 41.39614 42.71749 35890 ft 381 kts 258°
2026-04-23 21:58 41.38768 42.64780 35891 ft 382 kts 258°
2026-04-23 21:59 41.37906 42.57799 35866 ft 381 kts 258°
2026-04-23 21:59 41.37041 42.50864 35880 ft 382 kts 258°
2026-04-23 22:00 41.35726 42.40418 35880 ft 381 kts 258°
2026-04-23 22:00 41.34853 42.33511 35880 ft 382 kts 258°
2026-04-23 22:01 41.33973 42.26570 35893 ft 379 kts 258°
2026-04-23 22:01 41.33086 42.19604 35902 ft 382 kts 258°
2026-04-23 22:02 41.32203 42.12718 35908 ft 379 kts 258°
2026-04-23 22:02 41.31308 42.05771 35906 ft 381 kts 258°
2026-04-23 22:03 41.30417 41.98858 35909 ft 381 kts 258°
2026-04-23 22:03 41.29506 41.91875 35931 ft 381 kts 258°
2026-04-23 22:04 41.28593 41.84959 35948 ft 382 kts 258°
2026-04-23 22:04 41.27676 41.78037 35952 ft 380 kts 258°
2026-04-23 22:05 41.26759 41.71126 35962 ft 380 kts 258°
2026-04-23 22:05 41.25840 41.64250 35956 ft 380 kts 258°
2026-04-23 22:06 41.24913 41.57337 35954 ft 380 kts 258°
2026-04-23 22:06 41.23980 41.50426 35931 ft 380 kts 258°
2026-04-23 22:07 41.23043 41.43527 35925 ft 379 kts 258°